Auburn, AL

3:53 PM CDT on October 17, 2017 (GMT -0500)
Auburn-opelika-pitts

Weather History for KAUO - April, 2014

Change the Weather History Date:

Saturday, April 5, 2014

  Actual Average Record
Temperature  
Mean Temperature 63 °F -  
Max Temperature 72 °F - 88 °F (1969)
Min Temperature 54 °F - 28 °F (1987)
Degree Days  
Heating Degree Days 2    
Month to date heating degree days 6  
Since 1 July heating degree days 2603  
Cooling Degree Days 0    
Month to date cooling degree days 5  
Year to date cooling degree days 6  
Growing Degree Days 12 (Base 50)    
Moisture  
Dew Point 44 °F    
Average Humidity 58    
Maximum Humidity 94    
Minimum Humidity 27    
Precipitation  
Precipitation 0.00 in - 3.58 in (1957)
Month to date precipitation 0.04  
Year to date precipitation 12.18  
Sea Level Pressure  
Sea Level Pressure 30.05 in    
Wind  
Wind Speed 7 mph (NNW)    
Max Wind Speed 10 mph    
Max Gust Speed 16 mph    
Visibility 10 miles    
Events      
T = Trace of Precipitation, MM = Missing Value Source: NWS Daily Summary

Daily Weather History Graph

Daily Weather History Graph

Search for Another Location

Airport or City:

Trip Planner

Search our weather history database for the weather conditions in past years. The results will help you decide how hot, cold, wet, or windy it might be!

Date:

Astronomy

Apr. 05, 2014 Rise Set
Actual Time 6:24 AM CDT 7:04 PM CDT
Civil Twilight 5:59 AM CDT 7:29 PM CDT
Nautical Twilight 5:30 AM CDT 7:58 PM CDT
Astronomical Twilight 5:00 AM CDT 8:28 PM CDT
Moon 10:43 AM CDT (4/5) 12:02 AM CDT (4/5)
Length of Visible Light 13h 29m
Length of Day
12h 39m
Waxing Crescent, 34% of the Moon is Illuminated
Apr 5
Waxing Crescent
Apr 7
First Quarter
Apr 15
Full
Apr 22
Last Quarter
Apr 29
New

Hourly Weather History & Observations

Time (CDT) Temp. Dew Point Humidity Pressure Visibility Wind Dir Wind Speed Gust Speed Precip Events Conditions
12:15 AM 59.0 °F 57.2 °F 94% 30.03 in 10.0 mi WNW 5.8 mph - N/A   Overcast
12:35 AM 59.0 °F 57.2 °F 94% 30.03 in 10.0 mi WNW 4.6 mph - N/A   Overcast
12:55 AM 59.0 °F 57.2 °F 94% 30.03 in 10.0 mi WNW 4.6 mph - N/A   Overcast
1:15 AM 59.0 °F 57.2 °F 94% 30.02 in 10.0 mi NW 5.8 mph - N/A   Overcast
1:35 AM 59.0 °F 57.2 °F 94% 30.02 in 10.0 mi NW 3.5 mph - N/A   Mostly Cloudy
1:55 AM 59.0 °F 57.2 °F 94% 30.02 in 10.0 mi NW 5.8 mph - N/A   Overcast
2:15 AM 59.0 °F 57.2 °F 94% 30.02 in 10.0 mi NNW 6.9 mph - N/A   Overcast
2:35 AM 59.0 °F 55.4 °F 88% 30.02 in 10.0 mi NNW 9.2 mph - N/A   Overcast
2:55 AM 59.0 °F 55.4 °F 88% 30.02 in 10.0 mi NNW 6.9 mph - N/A   Overcast
3:15 AM 57.2 °F 55.4 °F 94% 30.02 in 10.0 mi NNW 6.9 mph - N/A   Overcast
3:35 AM 57.2 °F 55.4 °F 94% 30.02 in 10.0 mi NNW 9.2 mph - N/A   Overcast
3:55 AM 57.2 °F 53.6 °F 88% 30.02 in 10.0 mi NNW 6.9 mph 16.1 mph N/A   Overcast
4:15 AM 57.2 °F 53.6 °F 88% 30.01 in 10.0 mi North 9.2 mph - N/A   Overcast
4:35 AM 57.2 °F 51.8 °F 82% 30.02 in 10.0 mi North 9.2 mph - N/A   Overcast
4:55 AM 57.2 °F 48.2 °F 72% 30.02 in 10.0 mi North 8.1 mph - N/A   Overcast
5:15 AM 55.4 °F 48.2 °F 77% 30.02 in 10.0 mi North 9.2 mph - N/A   Overcast
5:35 AM 55.4 °F 48.2 °F 77% 30.03 in 10.0 mi North 10.4 mph - N/A   Overcast
5:55 AM 55.4 °F 48.2 °F 77% 30.03 in 10.0 mi North 8.1 mph - N/A   Overcast
6:15 AM 55.4 °F 46.4 °F 72% 30.04 in 10.0 mi North 8.1 mph - N/A   Overcast
6:35 AM 55.4 °F 46.4 °F 72% 30.05 in 10.0 mi North 6.9 mph - N/A   Overcast
6:55 AM 53.6 °F 46.4 °F 77% 30.06 in 10.0 mi North 8.1 mph - N/A   Overcast
7:35 AM 53.6 °F 44.6 °F 72% 30.07 in 10.0 mi North 5.8 mph - N/A   Overcast
7:55 AM 53.6 °F 44.6 °F 72% 30.07 in 10.0 mi North 8.1 mph - N/A   Overcast
8:15 AM 53.6 °F 44.6 °F 72% 30.08 in 10.0 mi North 9.2 mph - N/A   Overcast
8:35 AM 55.4 °F 42.8 °F 63% 30.08 in 10.0 mi NNE 10.4 mph - N/A   Overcast
8:55 AM 55.4 °F 42.8 °F 63% 30.09 in 10.0 mi NE 8.1 mph - N/A   Overcast
9:15 AM 55.4 °F 42.8 °F 63% 30.09 in 10.0 mi NE 6.9 mph - N/A   Overcast
9:35 AM 57.2 °F 42.8 °F 59% 30.10 in 10.0 mi NNE 5.8 mph - N/A   Overcast
9:55 AM 57.2 °F 42.8 °F 59% 30.11 in 10.0 mi NW 4.6 mph - N/A   Mostly Cloudy
10:15 AM 57.2 °F 42.8 °F 59% 30.11 in 10.0 mi ENE 3.5 mph - N/A   Scattered Clouds
10:35 AM 59.0 °F 42.8 °F 55% 30.11 in 10.0 mi Calm Calm - N/A   Clear
10:55 AM 60.8 °F 42.8 °F 52% 30.11 in 10.0 mi NW 6.9 mph - N/A   Partly Cloudy
11:15 AM 60.8 °F 42.8 °F 52% 30.11 in 10.0 mi Calm Calm - N/A   Partly Cloudy
11:35 AM 62.6 °F 42.8 °F 48% 30.10 in 10.0 mi NNE 3.5 mph - N/A   Clear
11:55 AM 62.6 °F 42.8 °F 48% 30.10 in 10.0 mi WNW 5.8 mph - N/A   Clear
12:15 PM 62.6 °F 42.8 °F 48% 30.09 in 10.0 mi NNW 3.5 mph - N/A   Clear
12:35 PM 64.4 °F 42.8 °F 45% 30.08 in 10.0 mi North 3.5 mph - N/A   Clear
12:55 PM 64.4 °F 42.8 °F 45% 30.08 in 10.0 mi Calm Calm - N/A   Clear
1:15 PM 66.2 °F 41.0 °F 40% 30.07 in 10.0 mi ENE 4.6 mph - N/A   Clear
1:35 PM 66.2 °F 41.0 °F 40% 30.07 in 10.0 mi East 3.5 mph - N/A   Clear
1:55 PM 68.0 °F 39.2 °F 35% 30.06 in 10.0 mi WSW 5.8 mph - N/A   Clear
2:15 PM 69.8 °F 41.0 °F 35% 30.05 in 10.0 mi WSW 6.9 mph - N/A   Clear
2:35 PM 69.8 °F 39.2 °F 33% 30.04 in 10.0 mi West 9.2 mph - N/A   Clear
2:55 PM 71.6 °F 37.4 °F 29% 30.04 in 10.0 mi West 8.1 mph - N/A   Clear
3:15 PM 71.6 °F 37.4 °F 29% 30.02 in 10.0 mi West 9.2 mph - N/A   Clear
3:55 PM 71.6 °F 35.6 °F 27% 30.02 in 10.0 mi WSW 8.1 mph - N/A   Clear
4:15 PM 71.6 °F 35.6 °F 27% 30.02 in 10.0 mi West 6.9 mph - N/A   Clear
4:35 PM 71.6 °F 35.6 °F 27% 30.02 in 10.0 mi West 5.8 mph - N/A   Clear
4:55 PM 69.8 °F 35.6 °F 28% 30.02 in 10.0 mi West 6.9 mph - N/A   Clear
5:15 PM 69.8 °F 33.8 °F 27% 30.02 in 10.0 mi West 6.9 mph - N/A   Clear
5:35 PM 69.8 °F 35.6 °F 28% 30.02 in 10.0 mi West 8.1 mph - N/A   Clear
5:55 PM 68.0 °F 35.6 °F 30% 30.03 in 10.0 mi WSW 5.8 mph - N/A   Clear
6:15 PM 68.0 °F 37.4 °F 33% 30.03 in 10.0 mi West 5.8 mph - N/A   Clear
6:35 PM 66.2 °F 39.2 °F 37% 30.03 in 10.0 mi Calm Calm - N/A   Clear
6:55 PM 66.2 °F 39.2 °F 37% 30.03 in 10.0 mi WNW 3.5 mph - N/A   Clear
7:15 PM 64.4 °F 39.2 °F 40% 30.04 in 10.0 mi WNW 3.5 mph - N/A   Clear
7:35 PM 64.4 °F 39.2 °F 40% 30.04 in 10.0 mi NW 4.6 mph - N/A   Clear
7:55 PM 64.4 °F 39.2 °F 40% 30.04 in 10.0 mi WNW 5.8 mph - N/A   Clear
8:15 PM 64.4 °F 39.2 °F 40% 30.05 in 10.0 mi WNW 3.5 mph - N/A   Clear
8:35 PM 62.6 °F 41.0 °F 45% 30.06 in 10.0 mi WNW 5.8 mph - N/A   Clear
8:55 PM 62.6 °F 42.8 °F 48% 30.06 in 10.0 mi NNW 8.1 mph - N/A   Clear
9:15 PM 60.8 °F 42.8 °F 52% 30.07 in 10.0 mi NNW 8.1 mph - N/A   Clear
9:35 PM 60.8 °F 41.0 °F 48% 30.07 in 10.0 mi NNW 5.8 mph - N/A   Clear
9:55 PM 60.8 °F 41.0 °F 48% 30.06 in 10.0 mi North 6.9 mph - N/A   Clear
10:15 PM 59.0 °F 39.2 °F 48% 30.06 in 10.0 mi North 5.8 mph - N/A   Clear
10:35 PM 57.2 °F 39.2 °F 51% 30.06 in 10.0 mi North 5.8 mph - N/A   Clear
10:55 PM 57.2 °F 39.2 °F 51% 30.05 in 10.0 mi NNE 10.4 mph - N/A   Clear
11:15 PM 57.2 °F 39.2 °F 51% 30.05 in 10.0 mi NNE 10.4 mph - N/A   Clear
11:35 PM 57.2 °F 39.2 °F 51% 30.05 in 10.0 mi NNE 8.1 mph - N/A   Clear
11:55 PM 57.2 °F 39.2 °F 51% 30.06 in 10.0 mi NNE 6.9 mph - N/A   Scattered Clouds